Meteo Giornale » Osservazioni meteo Italia » Bergamo-Orio Al Serio

ore: 02:50 - Osservazioni Meteo Bergamo-Orio Al Serio
Lat. 45° 40' N Lon. 9° 42' E Alt. 238 metri s.l.m.

nuvoloso Europe/Rome

16 °C

Nuvoloso

Temp. 24 Ore

16 °C

23 °C

Nord

5.5 Km/h

Dew point 16 °C

Umidità 100 %

Visibilità  10 Km

Il sole sorge alle ore 06:08

Il sole tramonta alle ore 20:46

Data e Ora Cielo e Fenomeni T °C DP °C Um. % Pres. hPa Vis. km Vento km/h
Oggi h: 02:50 nuvoloso Nuvoloso 16 16 100 1008 10 N 5.5
Oggi h: 02:20 coperto_pioggia Pioggia Debole 17 16 93 1009 10 N/NO 7.4
Oggi h: 01:50 coperto_pioggia Pioggia Debole 16 16 100 1009 10 N/NE 9.3
Oggi h: 01:20 coperto_pioggia Pioggia Debole 16 16 100 1009 10 N 7.4
Oggi h: 00:50 coperto_pioggia Pioggia Debole 16 16 100 1010 8 N 5.5
Oggi h: 00:20 coperto_pioggia Pioggia 17 16 93 1010 2 N 7.4
Ieri h: 23:50 molto_nuvoloso Molto Nuvoloso 18 16 88 1010 10 N 14.8
Ieri h: 23:20 coperto_pioggia Pioggia Debole 18 17 93 1010 8 N 7.4
Ieri h: 22:50 coperto_pioggia Pioviggine 18 17 93 1009 8 N/NE 9.3
Ieri h: 22:20 coperto_pioggia Pioviggine 18 17 93 1010 7 E 7.4
Ieri h: 21:50 coperto_pioggia Pioviggine Leggera 18 17 93 1010 10 N 5.5
Ieri h: 21:20 coperto_pioggia Pioggia Debole 18 17 93 1009 10 NE 13
Ieri h: 20:50 coperto_pioggia Pioggia Debole 19 16 82 1009 10 N 1.8
Ieri h: 20:20 molto_nuvoloso Molto Nuvoloso 19 17 88 1009 10 NE 7.4
Ieri h: 19:50 molto_nuvoloso Molto Nuvoloso 20 16 77 1010 10 E/NE 9.3
Ieri h: 19:20 molto_nuvoloso Molto Nuvoloso 20 17 82 1010 10 E/NE 7.4
Ieri h: 18:50 coperto_pioggia Pioggia Debole 20 17 82 1010 10 E/NE 11.1
Ieri h: 18:20 coperto_pioggia Pioggia Debole 20 18 88 1010 10 NE 9.3
Ieri h: 17:50 coperto_pioggia Pioggia Debole 20 19 93 1010 8 E/NE 7.4
Ieri h: 17:20 coperto_pioggia Pioggia Debole 20 19 93 1011 8 E/NE 9.3
Ieri h: 16:50 coperto_pioggia Pioggia Debole 20 19 93 1011 7 E/NE 9.3
Ieri h: 16:20 coperto_pioggia Pioggia 20 19 93 1011 7 E/NE 9.3
Ieri h: 15:50 coperto_pioggia Pioggia 20 19 93 1012 8 NE 7.4
Ieri h: 15:20 coperto_pioggia Pioggia Foschia 20 19 93 1012 5 E/NE 7.4
Ieri h: 14:50 coperto_pioggia Pioggia Debole Foschia 20 19 93 1012 5 E/NE 9.3
Ieri h: 14:20 coperto_pioggia Pioggia Debole 20 19 93 1012 10 E/NE 7.4
Ieri h: 13:50 coperto_pioggia Pioggia Debole 20 18 88 1012 8 E 7.4
Ieri h: 13:20 coperto_pioggia Pioggia Debole 21 18 82 1013 8 E/SE 9.3
Ieri h: 11:50 coperto_pioggia Pioviggine Leggera 23 17 68 1013 10 N 3.7
Ieri h: 11:20 coperto_pioggia Pioggia Debole 23 17 68 1013 10 N 3.7
Ieri h: 10:50 nuvoloso Nuvoloso 23 18 73 1013 10 N 5.5
Ieri h: 10:20 molto_nuvoloso Molto Nuvoloso 22 18 78 1013 10 N 3.7
Ieri h: 09:50 molto_nuvoloso Molto Nuvoloso 21 18 82 1013 10 N 1.8
Ieri h: 09:20 molto_nuvoloso Molto Nuvoloso 21 17 77 1013 10 N 1.8
Ieri h: 08:50 molto_nuvoloso Molto Nuvoloso 20 18 88 1013 10 N 3.7
Ieri h: 08:20 molto_nuvoloso Molto Nuvoloso 20 18 88 1013 10 N 1.8
Ieri h: 07:50 molto_nuvoloso Molto Nuvoloso 20 18 88 1013 10 N 1.8
Ieri h: 07:20 molto_nuvoloso Molto Nuvoloso 20 17 82 1013 10 N 5.5
Ieri h: 06:50 coperto Coperto 19 17 88 1012 10 N 5.5
Ieri h: 06:20 molto_nuvoloso Molto Nuvoloso 19 17 88 1012 10 N 7.4
Ieri h: 05:50 coperto_pioggia Pioggia Debole 19 17 88 1012 10 N 5.5
Ieri h: 05:20 molto_nuvoloso Molto Nuvoloso 19 17 88 1012 10 N/NE 7.4
Ieri h: 04:50 coperto_pioggia Pioggia Debole 19 17 88 1013 10 N/NE 9.3
Ieri h: 04:20 coperto_pioggia Pioggia Debole 20 17 82 1013 10 N/NE 7.4
Ieri h: 03:50 coperto_pioggia Pioggia Debole 20 16 77 1013 10 N 3.7